Change the Weather History Date:

Monday, February 17, 2014

  Actual Average (KYKM) Record (KYKM)
Temperature  
Mean Temperature 38 °F 36 °F  
Max Temperature 45 °F 47 °F 64 °F (1948)
Min Temperature 28 °F 26 °F 10 °F (1993)
Degree Days  
Heating Degree Days 28 29  
Month to date heating degree days 510  
Since 1 July heating degree days 4228  
Cooling Degree Days 0 0  
Month to date cooling degree days 0  
Year to date cooling degree days 0  
Moisture  
Dew Point 33 °F    
Average Humidity 83    
Maximum Humidity 93    
Minimum Humidity 60    
Precipitation  
Precipitation 0.10 in 0.02 in 0.46 in (1994)
Month to date precipitation 0.48  
Year to date precipitation 1.62  
Snow  
Snow 0.00 in 0.10 in 2.60 in (1972)
Month to date snowfall 1.8  
Year to date snowfall 7.1  
Since 1 July snowfall 20.1  
Snow Depth -    
Sea Level Pressure  
Sea Level Pressure 29.74 in    
Wind  
Wind Speed 6 mph (NW)    
Max Wind Speed 20 mph    
Max Gust Speed 28 mph    
Visibility 9 miles    
Events Rain , Snow    
T = Trace of Precipitation, MM = Missing Value Source: NWS Daily Summary

Daily Weather History Graph

Daily Weather History Graph

Search for Another Location

Airport or City:

Trip Planner

Search our weather history database for the weather conditions in past years. The results will help you decide how hot, cold, wet, or windy it might be!

Date:

Astronomy

Feb. 17, 2014 Rise Set
Actual Time 7:03 AM PST 5:29 PM PST
Civil Twilight 6:31 AM PST 6:01 PM PST
Nautical Twilight 5:56 AM PST 6:36 PM PST
Astronomical Twilight 5:21 AM PST 7:11 PM PST
Moon 8:44 PM PST (2/17) 7:53 AM PST (2/17)
Length of Visible Light 11h 29m
Length of Day
10h 26m
Waning Gibbous, 93% of the Moon is Illuminated
Feb 17
Waning Gibbous
Feb 22
Last Quarter
Mar 1
New
Mar 8
First Quarter
Mar 16
Full

Hourly Weather History & Observations

Time (PST) Temp. Windchill Dew Point Humidity Pressure Visibility Wind Dir Wind Speed Gust Speed Precip Events Conditions
12:53 AM 39.9 °F 36.7 °F 32.0 °F 73% 29.71 in 10.0 mi Variable 4.6 mph - 0.00 in Rain Light Rain
1:30 AM 39.9 °F 35.1 °F 33.1 °F 77% 29.69 in 9.0 mi ESE 6.9 mph - 0.01 in Rain Light Rain
1:53 AM 39.0 °F 35.7 °F 34.0 °F 82% 29.72 in 9.0 mi SW 4.6 mph - 0.02 in Rain Light Rain
2:53 AM 37.0 °F - 34.0 °F 89% 29.72 in 10.0 mi Calm Calm - 0.01 in Rain Light Rain
3:21 AM 36.0 °F 31.1 °F 33.1 °F 89% 29.67 in 10.0 mi NNE 5.8 mph - 0.00 in Rain Light Freezing Rain
3:37 AM 36.0 °F 33.3 °F 34.0 °F 93% 29.69 in 10.0 mi SW 3.5 mph - 0.00 in Rain Light Rain
3:53 AM 36.0 °F 33.3 °F 33.1 °F 89% 29.71 in 10.0 mi West 3.5 mph - 0.00 in Rain Light Rain
4:53 AM 36.0 °F 33.3 °F 32.0 °F 86% 29.73 in 10.0 mi SW 3.5 mph - 0.00 in   Overcast
5:49 AM 35.6 °F 31.7 °F 32.0 °F 87% 29.67 in 10.0 mi SE 4.6 mph - 0.01 in   Overcast
5:53 AM 35.1 °F 32.2 °F 32.0 °F 89% 29.71 in 10.0 mi South 3.5 mph - 0.01 in   Overcast
6:07 AM 35.1 °F - 33.1 °F 92% 29.69 in 10.0 mi Calm Calm - N/A   Overcast
6:15 AM 35.1 °F - 32.0 °F 89% 29.68 in 9.0 mi Calm Calm - 0.00 in Rain Light Rain
6:53 AM 35.1 °F 30.1 °F 32.0 °F 89% 29.71 in 6.0 mi NE 5.8 mph - 0.02 in Rain Light Rain
7:31 AM 36.0 °F 31.1 °F 32.0 °F 86% 29.66 in 4.0 mi NNE 5.8 mph - 0.01 in Rain Rain
7:53 AM 36.0 °F 33.3 °F 33.1 °F 89% 29.69 in 7.0 mi NE 3.5 mph - 0.02 in Rain Light Rain
8:25 AM 37.0 °F 32.4 °F 34.0 °F 89% 29.67 in 8.0 mi SW 5.8 mph - 0.00 in Rain Light Rain
8:44 AM 37.0 °F 31.6 °F 34.0 °F 89% 29.69 in 3.0 mi SW 6.9 mph - 0.00 in   Overcast
8:53 AM 37.0 °F - 34.0 °F 89% 29.70 in 4.0 mi Calm Calm - 0.00 in   Overcast
9:45 AM 39.9 °F 34.5 °F 35.1 °F 83% 29.66 in 10.0 mi NNW 8.1 mph - N/A   Overcast
9:53 AM 39.9 °F 35.8 °F 35.1 °F 83% 29.69 in 10.0 mi NNW 5.8 mph - N/A   Overcast
10:18 AM 41.0 °F 37.1 °F 36.0 °F 82% 29.67 in 10.0 mi NW 5.8 mph - 0.00 in Rain Light Rain
10:34 AM 42.1 °F 40.2 °F 37.0 °F 82% 29.66 in 10.0 mi NNW 3.5 mph - 0.00 in Rain Light Rain
10:53 AM 42.1 °F 37.1 °F 36.0 °F 79% 29.70 in 10.0 mi NW 8.1 mph - 0.00 in Rain Light Rain
11:07 AM 42.1 °F 37.1 °F 36.0 °F 79% 29.68 in 9.0 mi WNW 8.1 mph - 0.00 in Rain Light Rain
11:14 AM 42.1 °F 37.1 °F 36.0 °F 79% 29.67 in 6.0 mi NW 8.1 mph - 0.01 in Rain Light Rain
11:23 AM 42.1 °F 35.2 °F 36.0 °F 79% 29.69 in 8.0 mi WNW 12.7 mph - 0.01 in Rain Light Rain
11:53 AM 43.0 °F 36.8 °F 36.0 °F 76% 29.71 in 10.0 mi NW 11.5 mph - 0.01 in Rain Light Rain
12:53 PM 44.1 °F 36.2 °F 35.1 °F 71% 29.71 in 10.0 mi NW 18.4 mph 24.2 mph 0.00 in   Overcast
1:53 PM 42.1 °F 33.6 °F 33.1 °F 70% 29.73 in 10.0 mi WNW 18.4 mph - N/A   Overcast
2:53 PM 45.0 °F 37.9 °F 33.1 °F 63% 29.75 in 10.0 mi WNW 16.1 mph 21.9 mph N/A   Partly Cloudy
3:53 PM 45.0 °F 37.1 °F 32.0 °F 60% 29.77 in 10.0 mi NW 19.6 mph - N/A   Mostly Cloudy
4:53 PM 37.9 °F 28.5 °F 32.0 °F 79% 29.81 in 10.0 mi NW 17.3 mph 27.6 mph 0.00 in Rain Light Rain
5:53 PM 37.9 °F 29.6 °F 32.0 °F 79% 29.83 in 10.0 mi NW 13.8 mph - 0.00 in Rain Light Rain
6:17 PM 36.0 °F 30.3 °F 32.0 °F 86% 29.79 in 8.0 mi WNW 6.9 mph - 0.01 in Snow Light Snow
6:41 PM 35.1 °F 32.2 °F 32.0 °F 89% 29.80 in 10.0 mi NNW 3.5 mph - 0.01 in   Mostly Cloudy
6:53 PM 34.0 °F - 30.9 °F 89% 29.85 in 10.0 mi Calm Calm - 0.01 in   Partly Cloudy
7:53 PM 33.1 °F 28.7 °F 28.9 °F 85% 29.86 in 10.0 mi SE 4.6 mph - N/A   Clear
8:53 PM 34.0 °F - 30.0 °F 85% 29.90 in 10.0 mi Calm Calm - N/A   Scattered Clouds
9:53 PM 30.9 °F 22.2 °F 27.0 °F 85% 29.91 in - NNW 10.4 mph - N/A   Unknown
10:53 PM 30.9 °F 26.2 °F 27.0 °F 85% 29.93 in 10.0 mi WNW 4.6 mph - N/A   Clear
11:53 PM 28.0 °F 22.8 °F 24.1 °F 85% 29.95 in 8.0 mi SE 4.6 mph - N/A   Scattered Clouds